Regional Weather Roundup
Issued by NWS

Home | Current Version | Previous Version | Graphics & Text | Print | Product List | Glossary On
Versions: 1 2 3 4 5 6 7 8 9 10 11 12 13 14 15 16 17 18 19 20 21 22 23 24 25 26 27 28 29 30 31 32 33 34 35 36 37 38 39 40 41 42 43 44 45 46 47 48 49 50
000
ASUS45 KABQ 191001
RWRNM
WEATHER ROUNDUP FOR NEW MEXICO
NATIONAL WEATHER SERVICE ALBUQUERQUE NM
400 AM MDT FRI SEP 19 2014

NOTE: "FAIR" MEANS FEW OR NO CLOUDS BELOW 12,000 FEET AGL WITH NO
       SIGNIFICANT WEATHER OR OBSTRUCTIONS TO VISION.

      THIS PRODUCT IS RELEASED AS TWO VERSIONS.  ONE VERSION NEAR
      THE TOP OF THE HOUR CONTAINING PRELIMINARY DATA FROM ALBUQUERQUE
      AND OTHER STATIONS.  A FINAL VERSION WITH ADDITIONAL DATA IS
      ISSUED ABOUT 10 MINUTES AFTER THE HOUR.

NMZ501-503-504-510>518-191100-
NORTHWEST PLATEAU/NORTHCENTRAL MOUNTAINS

CITY           SKY/WX    TMP DP  RH WIND       PRES   REMARKS
FARMINGTON     CLEAR     59  40  49 NE8       30.04R
LOS ALAMOS     CLEAR     58  52  79 SW7       30.17F
SANTA FE       MOCLDY    57  51  80 W3        30.12F
TAOS           MOCLDY    52  46  82 CALM      30.19R
ANGEL FIRE     FOG       43  41  93 CALM      30.26S VSB 1/4

$$
NMZ402-403-502-505>509-191100-
WESTCENTRAL MOUNTAINS/SOUTHWEST MOUNTAINS

CITY           SKY/WX    TMP DP  RH WIND       PRES   REMARKS
GALLUP         CLEAR     49  44  83 NE5       30.12F
GRANTS         CLEAR     46  43  87 NW6       30.14S
SILVER CITY    FOG       59  59 100 CALM      30.06F VSB 1/4

$$
NMZ407-409-411-412-191100-
SOUTHERN DESERTS

CITY           SKY/WX    TMP DP  RH WIND       PRES   REMARKS
LORDSBURG      CLOUDY    63  63 100 MISG      29.99S
DEMING         PTCLDY    62  62 100 W3        29.99S FOG
LAS CRUCES     CLOUDY    64  64  97 CALM      29.99S
HOLLOMAN AFB   MOCLDY    64  59  82 N8        29.96F
ALAMOGORDO     LGT RAIN  64  64 100 N6        29.98S
T OR C         CLOUDY    63  60  90 NW5       30.00F

$$
NMZ519>523-191100-
CENTRAL VALLEYS/CENTRAL HIGHLANDS

CITY           SKY/WX    TMP DP  RH WIND       PRES   REMARKS
ALBUQUERQUE    CLOUDY    66  58  75 N6        30.07R
DOUBLE EAGLE   MOCLDY    57  56  94 CALM      30.10R
CLINES CORNERS CLOUDY    58  56  93 E7        30.15S
BELEN          CLOUDY    62  60  94 NW3       30.05S
SOCORRO        MOCLDY    61  59  92 W5        30.02F

$$
NMZ524>526-539-540-191100-
SOUTHCENTRAL MOUNTAINS

CITY           SKY/WX    TMP DP  RH WIND       PRES   REMARKS
RUIDOSO        NOT AVBL

$$
NMZ527>531-191100-
NORTHEAST HIGHLANDS/NORTHEAST PLAINS

CITY           SKY/WX    TMP DP  RH WIND       PRES   REMARKS
LAS VEGAS      CLOUDY    57  56  96 CALM      30.16S
RATON          CLOUDY    59  58  96 S9        30.11S
CLAYTON        CLOUDY    62  58  86 S12       30.07S

$$
NMZ532>537-191100-
EASTCENTRAL PLAINS

CITY           SKY/WX    TMP DP  RH WIND       PRES   REMARKS
TUCUMCARI      CLOUDY    67  61  81 S3        30.02S
CANNON AFB     NOT AVBL
CLOVIS AIRPORT   N/A     63  63 100 S6        30.07S

$$
NMZ028-029-538-191100-
SOUTHEAST PLAINS

CITY           SKY/WX    TMP DP  RH WIND       PRES   REMARKS
ROSWELL        RAIN      66  65  96 NE9       29.96F FOG
CARLSBAD       CLOUDY    68  32  26 SW6       29.91F
HOBBS          LGT RAIN  66  66 100 E8        30.00R


$$



USA.gov is the U.S. government's official web portal to all federal, state and local government web resources and services.